Meteo orario Al Khiyam

Oggi, 22 Ottobre, Giovedi

Tempo Temperatura Precipitazioni Vento Pressione Umidità
00:00 +19°C° 0 mm 1 m/s 714 mm Hg 80%
01:00 +19°C° 0 mm 1 m/s 714 mm Hg 78%
02:00 +18°C° 0 mm 1 m/s 713 mm Hg 76%
03:00 +18°C° 0 mm 1 m/s 714 mm Hg 73%
04:00 +18°C° 0 mm 1 m/s 714 mm Hg 71%
05:00 +18°C° 0 mm 1 m/s 714 mm Hg 68%
06:00 +21°C° 0 mm 1 m/s 714 mm Hg 58%
07:00 +23°C° 0 mm 1 m/s 715 mm Hg 49%
08:00 +26°C° 0 mm 1 m/s 716 mm Hg 39%
09:00 +27°C° 0 mm 1 m/s 716 mm Hg 35%
10:00 +28°C° 0 mm 2 m/s 716 mm Hg 31%
11:00 +30°C° 0 mm 3 m/s 716 mm Hg 28%
12:00 +30°C° 0 mm 3 m/s 715 mm Hg 27%
13:00 +31°C° 0 mm 3 m/s 715 mm Hg 27%
14:00 +32°C° 0 mm 4 m/s 715 mm Hg 26%
15:00 +29°C° 0 mm 3 m/s 714 mm Hg 37%
16:00 +26°C° 0 mm 3 m/s 713 mm Hg 47%
17:00 +23°C° 0 mm 2 m/s 713 mm Hg 58%
18:00 +23°C° 0 mm 2 m/s 713 mm Hg 55%
19:00 +23°C° 0 mm 2 m/s 713 mm Hg 53%
20:00 +21°C° 0 mm 2 m/s 713 mm Hg 51%
21:00 +21°C° 0 mm 2 m/s 713 mm Hg 49%
22:00 +21°C° 0 mm 2 m/s 713 mm Hg 46%
23:00 +21°C° 0 mm 2 m/s 713 mm Hg 44%

Domani, 23 Ottobre, Venerdi

Tempo Temperatura Precipitazioni Vento Pressione Umidità
00:00 +20°C° 0 mm 3 m/s 713 mm Hg 44%
01:00 +20°C° 0 mm 3 m/s 713 mm Hg 43%
02:00 +20°C° 0 mm 3 m/s 713 mm Hg 42%
03:00 +20°C° 0 mm 3 m/s 713 mm Hg 43%
04:00 +19°C° 0 mm 3 m/s 713 mm Hg 43%
05:00 +19°C° 0 mm 3 m/s 713 mm Hg 44%
06:00 +21°C° 0 mm 3 m/s 713 mm Hg 36%
07:00 +25°C° 0 mm 3 m/s 714 mm Hg 29%
08:00 +27°C° 0 mm 3 m/s 714 mm Hg 22%
09:00 +29°C° 0 mm 4 m/s 714 mm Hg 20%
10:00 +30°C° 0 mm 4 m/s 714 mm Hg 17%
11:00 +33°C° 0 mm 5 m/s 714 mm Hg 15%
12:00 +33°C° 0 mm 5 m/s 714 mm Hg 15%
13:00 +34°C° 0 mm 4 m/s 714 mm Hg 15%
14:00 +34°C° 0 mm 4 m/s 713 mm Hg 15%
15:00 +30°C° 0 mm 4 m/s 712 mm Hg 21%
16:00 +27°C° 0 mm 3 m/s 712 mm Hg 27%
17:00 +25°C° 0 mm 2 m/s 711 mm Hg 33%
18:00 +24°C° 0 mm 2 m/s 711 mm Hg 28%
19:00 +24°C° 0 mm 3 m/s 711 mm Hg 23%
20:00 +24°C° 0 mm 3 m/s 711 mm Hg 18%
21:00 +24°C° 0 mm 3 m/s 711 mm Hg 18%
22:00 +23°C° 0 mm 4 m/s 711 mm Hg 18%
23:00 +23°C° 0 mm 4 m/s 711 mm Hg 18%

Dopodomani, 24 Ottobre, Sabato

Tempo Temperatura Precipitazioni Vento Pressione Umidità
00:00 +22°C° 0 mm 4 m/s 711 mm Hg 18%
01:00 +22°C° 0 mm 4 m/s 711 mm Hg 18%
02:00 +22°C° 0 mm 5 m/s 711 mm Hg 18%
03:00 +22°C° 0 mm 5 m/s 710 mm Hg 19%
04:00 +22°C° 0 mm 5 m/s 710 mm Hg 20%
05:00 +22°C° 0 mm 5 m/s 710 mm Hg 21%
06:00 +25°C° 0 mm 5 m/s 711 mm Hg 19%
07:00 +27°C° 0 mm 5 m/s 711 mm Hg 16%
08:00 +29°C° 0 mm 6 m/s 712 mm Hg 14%
09:00 +30°C° 0 mm 6 m/s 712 mm Hg 13%
10:00 +32°C° 0 mm 6 m/s 712 mm Hg 12%
11:00 +34°C° 0 mm 6 m/s 712 mm Hg 11%
12:00 +34°C° 0 mm 6 m/s 711 mm Hg 12%
13:00 +34°C° 0 mm 5 m/s 711 mm Hg 12%
14:00 +34°C° 0 mm 5 m/s 710 mm Hg 13%
15:00 +30°C° 0 mm 4 m/s 710 mm Hg 24%
16:00 +27°C° 0 mm 4 m/s 710 mm Hg 35%
17:00 +25°C° 0 mm 4 m/s 709 mm Hg 46%
18:00 +24°C° 0 mm 3 m/s 710 mm Hg 47%
19:00 +24°C° 0 mm 3 m/s 710 mm Hg 48%
20:00 +24°C° 0 mm 2 m/s 710 mm Hg 49%
21:00 +24°C° 0 mm 2 m/s 710 mm Hg 43%
22:00 +24°C° 0 mm 2 m/s 710 mm Hg 38%
23:00 +24°C° 0 mm 2 m/s 710 mm Hg 32%

, 25 Ottobre, Domenica

Tempo Temperatura Precipitazioni Vento Pressione Umidità
00:00 +24°C° 0 mm 2 m/s 710 mm Hg 30%
01:00 +24°C° 0 mm 2 m/s 709 mm Hg 28%
02:00 +22°C° 0 mm 3 m/s 709 mm Hg 26%
03:00 +24°C° 0 mm 3 m/s 709 mm Hg 24%
04:00 +23°C° 0 mm 4 m/s 710 mm Hg 22%
05:00 +25°C° 0 mm 4 m/s 710 mm Hg 21%
06:00 +26°C° 0 mm 5 m/s 710 mm Hg 20%
07:00 +27°C° 0 mm 6 m/s 710 mm Hg 19%
08:00 +28°C° 0 mm 7 m/s 711 mm Hg 18%
09:00 +29°C° 0 mm 7 m/s 711 mm Hg 18%
10:00 +30°C° 0 mm 7 m/s 711 mm Hg 17%
11:00 +32°C° 0 mm 7 m/s 711 mm Hg 16%
12:00 +32°C° 0 mm 6 m/s 710 mm Hg 18%
13:00 +30°C° 0 mm 5 m/s 710 mm Hg 19%
14:00 +30°C° 0 mm 4 m/s 710 mm Hg 21%
15:00 +28°C° 0 mm 4 m/s 709 mm Hg 26%
16:00 +26°C° 0 mm 3 m/s 709 mm Hg 32%
17:00 +24°C° 0 mm 2 m/s 709 mm Hg 38%
18:00 +23°C° 0 mm 2 m/s 709 mm Hg 35%
19:00 +22°C° 0 mm 3 m/s 710 mm Hg 32%
20:00 +21°C° 0 mm 3 m/s 710 mm Hg 30%
21:00 +21°C° 0 mm 3 m/s 710 mm Hg 29%
22:00 +21°C° 0 mm 3 m/s 710 mm Hg 29%
23:00 +20°C° 0 mm 2 m/s 710 mm Hg 29%

25 Ottobre, Domenica

Tempo Temperatura Precipitazioni Vento Pressione Umidità
00:00 +24°C° 0 mm 2 m/s 710 mm Hg 30%
01:00 +24°C° 0 mm 2 m/s 709 mm Hg 28%
02:00 +22°C° 0 mm 3 m/s 709 mm Hg 26%
03:00 +24°C° 0 mm 3 m/s 709 mm Hg 24%
04:00 +23°C° 0 mm 4 m/s 710 mm Hg 22%
05:00 +25°C° 0 mm 4 m/s 710 mm Hg 21%
06:00 +26°C° 0 mm 5 m/s 710 mm Hg 20%
07:00 +27°C° 0 mm 6 m/s 710 mm Hg 19%
08:00 +28°C° 0 mm 7 m/s 711 mm Hg 18%
09:00 +29°C° 0 mm 7 m/s 711 mm Hg 18%
10:00 +30°C° 0 mm 7 m/s 711 mm Hg 17%
11:00 +32°C° 0 mm 7 m/s 711 mm Hg 16%
12:00 +32°C° 0 mm 6 m/s 710 mm Hg 18%
13:00 +30°C° 0 mm 5 m/s 710 mm Hg 19%
14:00 +30°C° 0 mm 4 m/s 710 mm Hg 21%
15:00 +28°C° 0 mm 4 m/s 709 mm Hg 26%
16:00 +26°C° 0 mm 3 m/s 709 mm Hg 32%
17:00 +24°C° 0 mm 2 m/s 709 mm Hg 38%
18:00 +23°C° 0 mm 2 m/s 709 mm Hg 35%
19:00 +22°C° 0 mm 3 m/s 710 mm Hg 32%
20:00 +21°C° 0 mm 3 m/s 710 mm Hg 30%
21:00 +21°C° 0 mm 3 m/s 710 mm Hg 29%
22:00 +21°C° 0 mm 3 m/s 710 mm Hg 29%
23:00 +20°C° 0 mm 2 m/s 710 mm Hg 29%

26 Ottobre, Lunedi

Tempo Temperatura Precipitazioni Vento Pressione Umidità
00:00 +20°C° 0 mm 2 m/s 710 mm Hg 30%
01:00 +19°C° 0 mm 2 m/s 710 mm Hg 31%
02:00 +19°C° 0 mm 2 m/s 710 mm Hg 33%
03:00 +19°C° 0 mm 2 m/s 710 mm Hg 32%
04:00 +19°C° 0 mm 2 m/s 710 mm Hg 31%
05:00 +19°C° 0 mm 2 m/s 710 mm Hg 30%
06:00 +21°C° 0 mm 2 m/s 711 mm Hg 26%
07:00 +25°C° 0 mm 3 m/s 711 mm Hg 22%
08:00 +27°C° 0 mm 3 m/s 712 mm Hg 19%
09:00 +28°C° 0 mm 3 m/s 712 mm Hg 18%
10:00 +30°C° 0 mm 3 m/s 712 mm Hg 18%
11:00 +31°C° 0 mm 3 m/s 712 mm Hg 17%
12:00 +32°C° 0 mm 4 m/s 712 mm Hg 18%
13:00 +32°C° 0 mm 4 m/s 711 mm Hg 18%
14:00 +33°C° 0 mm 4 m/s 711 mm Hg 19%
15:00 +29°C° 0 mm 4 m/s 711 mm Hg 25%
16:00 +26°C° 0 mm 3 m/s 710 mm Hg 31%
17:00 +24°C° 0 mm 3 m/s 710 mm Hg 38%
18:00 +23°C° 0 mm 2 m/s 710 mm Hg 37%
19:00 +23°C° 0 mm 2 m/s 710 mm Hg 35%
20:00 +21°C° 0 mm 2 m/s 710 mm Hg 34%
21:00 +21°C° 0 mm 3 m/s 710 mm Hg 31%
22:00 +21°C° 0 mm 3 m/s 710 mm Hg 27%
23:00 +21°C° 0 mm 4 m/s 710 mm Hg 23%

27 Ottobre, Martedi

Tempo Temperatura Precipitazioni Vento Pressione Umidità
00:00 +21°C° 0 mm 4 m/s 710 mm Hg 23%
01:00 +20°C° 0 mm 3 m/s 710 mm Hg 24%
02:00 +20°C° 0 mm 3 m/s 710 mm Hg 24%
03:00 +19°C° 0 mm 3 m/s 710 mm Hg 23%
04:00 +19°C° 0 mm 3 m/s 710 mm Hg 22%
05:00 +19°C° 0 mm 3 m/s 710 mm Hg 22%
06:00 +21°C° 0 mm 3 m/s 711 mm Hg 19%
07:00 +24°C° 0 mm 3 m/s 711 mm Hg 16%
08:00 +26°C° 0 mm 2 m/s 712 mm Hg 13%
09:00 +28°C° 0 mm 3 m/s 712 mm Hg 14%
10:00 +29°C° 0 mm 3 m/s 712 mm Hg 15%
11:00 +30°C° 0 mm 3 m/s 712 mm Hg 16%
12:00 +30°C° 0 mm 3 m/s 712 mm Hg 18%
13:00 +30°C° 0 mm 3 m/s 712 mm Hg 19%
14:00 +30°C° 0 mm 3 m/s 711 mm Hg 21%
15:00 +27°C° 0 mm 2 m/s 711 mm Hg 32%
16:00 +24°C° 0 mm 2 m/s 710 mm Hg 43%
17:00 +21°C° 0 mm 1 m/s 710 mm Hg 54%
18:00 +20°C° 0 mm 1 m/s 710 mm Hg 52%
19:00 +20°C° 0 mm 1 m/s 710 mm Hg 51%
20:00 +19°C° 0 mm 1 m/s 710 mm Hg 50%
21:00 +17°C° 0 mm 0 m/s 710 mm Hg 51%
22:00 +16°C° 0 mm 0 m/s 710 mm Hg 51%
23:00 +16°C° 0 mm 0 m/s 710 mm Hg 52%
Mostrare altro

Abbiamo bisogno del tuo consenso

Meteoprog e i nostri fornitori di servizi possono memorizzare e accedere a dati personali come cookie, identificatori di dispositivi o altre tecnologie simili sul tuo dispositivo e possono elaborare tali dati per personalizzare i contenuti e gli annunci, nonché fornire funzionalità dei social media e analizzarne il traffico.

  • Archiviare e/o accedere alle informazioni sul tuo dispositivo

    Cookie, identificatori di dispositivi o altre informazioni possono essere memorizzati o resi accessibili sul tuo dispositivo per le finalità sopra indicate.

  • Annunci e contenuti personalizzati, misurazione di annunci e contenuti, approfondimenti sul pubblico e sviluppo di prodotti

    Gli annunci e i contenuti possono essere personalizzati in base a un profilo. È possibile aggiungere più dati per personalizzare meglio annunci e contenuti. È possibile misurare il rendimento degli annunci e dei contenuti. È possibile ricavare informazioni sul pubblico che ha visto gli annunci e i contenuti. Tali dati possono essere utilizzati per sviluppare o migliorare l'esperienza, i sistemi e il software dell'utente.

Cliccando su “Accetto”, acconsenti all'uso di cookie, identificatori di dispositivo, web beacon o altre tecnologie simili. Puoi modificare le impostazioni nel browser del tuo dispositivo.

Per determinati scopi, è possibile fare affidamento su interessi legali, piuttosto che sul consenso. Puoi approfondire questo argomento consultando la nostra Informativa sulla privacy e sui cookie.